Regional Weather Roundup
Issued by NWS Sioux Falls, SD

Home | Current Version | Previous Version | Text Only | Print | Product List | Glossary On
Versions: 1 2 3 4 5 6 7 8 9 10 11 12 13 14 15 16 17 18 19 20 21 22 23 24 25 26 27 28 29 30 31 32 33 34 35 36 37 38 39 40 41 42 43 44 45 46 47 48 49 50
499
ASUS43 KFSD 241802
RWRFSD

WEATHER ROUNDUP FOR SE SOUTH DAKOTA/SW MINNESOTA/NW IOWA
NATIONAL WEATHER SERVICE SIOUX FALLS SD
100 PM CDT TUE MAY 24 2016

NOTE: "FAIR" INDICATES FEW OR NO CLOUDS BELOW 12,000 FEET WITH NO
SIGNIFICANT WEATHER AND OR OBSTRUCTIONS TO VISIBILITY.


SDZ038>040-050-052>070-241900-
SOUTHEAST SOUTH DAKOTA

CITY           SKY/WX    TMP DP  RH WIND       PRES   REMARKS
BROOKINGS      SUNNY     74  62  66 VRB5      29.88S
CHAMBERLAIN    NOT AVBL
HURON          SUNNY     77  54  44 CALM      29.85F
6HR MIN TEMP:  57; 6HR MAX TEMP:  77;

MADISON        FAIR      77  55  47 S3        29.88S
MITCHELL       SUNNY     80  56  43 NW3       29.86S
6HR MIN TEMP:  56; 6HR MAX TEMP:  80;

SIOUX FALLS    MOSUNNY   79  60  52 CALM      29.87S
6HR MIN TEMP:  62; 6HR MAX TEMP:  79;

WINNER         FAIR      78  51  38 NW3       29.88F
YANKTON        SUNNY     77  59  53 CALM      29.86R
$$

MNZ071-072-080-081-089-090-097-098-241900-
SOUTHWEST MINNESOTA

CITY           SKY/WX    TMP DP  RH WIND       PRES   REMARKS
FAIRMONT       MOSUNNY   75  59  57 CALM      29.90S
JACKSON        SUNNY     73  61  64 W5        29.91S
LUVERNE        SUNNY     75  57  53 W3        29.89S
MARSHALL         N/A     79  62  56 SW9       29.86F
MONTEVIDEO     SUNNY     82  61  47 CALM      29.87S
PIPESTONE      SUNNY     75  61  60 CALM      29.89R
REDWOOD FALLS  SUNNY     77  64  64 SW5       29.87S
TRACY          SUNNY     79  63  57 S8        29.87F
WINDOM         PTSUNNY   77  66  69 CALM      29.90R
WORTHINGTON    SUNNY     73  66  78 VRB5      29.91R
$$

IAZ001>003-012>014-020>022-031-032-NEZ013-014-SDZ071-241900-
NORTHWEST IOWA

CITY           SKY/WX    TMP DP  RH WIND       PRES   REMARKS
DENISON        MOSUNNY   73  64  73 CALM      29.88F
ESTHERVILLE    MOSUNNY   75  64  68 S8        29.90R
SIOUX CITY     SUNNY     77  67  71 CALM      29.87F
6HR MIN TEMP:  61; 6HR MAX TEMP:  77;

SPENCER        CLOUDY    75  64  68 VRB5      29.90R
6HR MIN TEMP:  60; 6HR MAX TEMP:  76;

STORM LAKE     MOSUNNY   73  64  73 W6        29.91S
$$

ABBREVIATIONS USED IN REMARKS
   TC - TEMPERATURE IN CELSIUS
  WCI - WIND CHILL INDEX
   HX - HEAT INDEX
  VSB - VISIBILITY





USA.gov is the U.S. government's official web portal to all federal, state and local government web resources and services.